Location: *
(43.8727°S, 178.9281°E)
Time: 20:58:10
(UTC+00:00)

Daily predictions for brighter satellites

Satellite Brightness Start Highest point End
(mag) Time Altitude Azimuth Time Altitude Azimuth Time Altitude Azimuth
SL-4 R/B 4.1 12:00:01 10° WSW 12:03:35 27° S 12:07:01 10° ESE
Cosmos 1758 Rocket 4.1 12:00:52 10° SSW 12:05:07 51° W 12:05:07 51° W
Lacrosse 5 rocket 4.0 12:02:57 10° WSW 12:05:18 16° SSW 12:07:37 10° SSE
Alouette 2 Rocket 4.0 12:00:21 10° SSW 12:06:42 66° W 12:07:04 63° WNW
Cosmos 2150 Rocket 4.3 12:08:20 50° WNW 12:09:18 59° WSW 12:14:27 10° SSE
Cosmos 2181 Rocket 4.0 12:09:42 54° NNE 12:11:05 70° E 12:17:19 10° SSE
Cosmos 1726 Rocket 4.0 12:12:01 53° ESE 12:12:01 53° ESE 12:16:00 10° SSE
Cosmos 2228 4.4 12:14:48 27° W 12:15:06 27° WSW 12:18:45 10° SSW
ATLAS 3B R/B 3.1 12:13:23 10° SSW 12:19:27 52° SE 12:23:26 22° ENE
Cosmos 1953 Rocket 3.9 12:20:55 10° S 12:25:15 54° E 12:25:15 54° E
Cosmos 864 Rocket 4.4 12:20:57 10° SSW 12:27:11 74° W 12:28:28 56° NNW
Cosmos 2369 Rocket 4.2 12:22:51 10° W 12:27:20 23° SW 12:31:52 10° S
Okean 1-7 Rocket 4.3 12:23:56 10° SSW 12:28:09 44° W 12:28:09 44° W
Meteor 1-20 Rocket 4.4 12:25:28 10° S 12:31:01 61° ESE 12:32:12 49° NE
Gbstr 26 Del rocket 3.9 12:25:49 10° WSW 12:31:33 81° SSE 12:38:09 12° ENE
ALOS 2 2.5 12:27:28 10° SSE 12:31:51 83° ESE 12:31:51 83° ESE
IDEFIX/ARIANE 42P 2.8 12:31:14 50° ENE 12:32:21 63° ESE 12:37:36 10° S
Lacrosse 4 Rocket 2.7 12:30:51 10° SW 12:33:41 32° WSW 12:33:41 32° WSW
ARIANE 5 R/B 3.6 12:35:01 10° S 12:39:10 37° WSW 12:39:36 36° W
Lacrosse 5 3.9 12:35:37 10° WSW 12:39:57 26° SSW 12:44:18 10° SE
Resurs 1-4 Rocket 2.9 12:41:29 32° ENE 12:43:22 45° ESE 12:48:27 10° S
ADEOS II 3.6 12:40:54 19° ENE 12:43:41 30° ESE 12:48:15 10° S
IRIDIUM 114 4.5 12:42:55 55° NE 12:43:45 63° E 12:48:59 10° S
MSX 3.8 12:43:53 51° NNE 12:45:23 78° ESE 12:51:12 10° SSW
H-2A R/B 2.9 12:48:43 36° WSW 12:48:43 36° WSW 12:51:49 10° SSW
Cosmos-2242 3.9 12:49:17 37° E 12:49:18 37° E 12:53:13 10° SSE
NOSS 3-1 (A) 3.5 12:44:39 10° SW 12:50:44 47° WNW 12:50:44 47° WNW
CZ-2C R/B 3.0 12:51:35 63° NNW 12:52:13 70° WNW 12:57:26 10° SSW
IRIDIUM 103 4.3 12:52:04 62° NNE 12:52:53 76° E 12:58:12 10° S
Cosmos 1269 Rocket 3.9 12:49:34 10° SSW 12:54:54 73° WNW 12:55:26 67° NNW
Cosmos 1656 3.6 12:54:16 61° N 12:55:16 80° ENE 13:01:03 10° SSE
H-2A R/B 3.0 12:52:41 10° SSE 12:56:16 48° E 12:56:16 48° E
Cosmos 407 Rocket 4.5 12:52:13 10° S 12:57:18 43° ESE 12:59:45 26° ENE
Iridium 51 4.4 12:53:42 10° S 12:57:35 77° S 12:57:35 77° S
NPP 3.6 12:57:44 61° N 12:58:46 85° WNW 13:04:16 10° SSW
Cosmos 1238 Rocket 4.4 12:59:57 21° ESE 12:59:57 21° ESE 13:02:25 10° SE
Cosmos 2058 Rocket 2.9 13:02:01 85° W 13:02:01 85° W 13:06:28 10° S
Cosmos 1934 Rocket 4.4 12:58:48 10° S 13:04:55 54° ESE 13:07:34 32° NE
ALOS 3.8 13:02:48 20° ENE 13:05:01 30° ESE 13:09:04 10° S
Cosmos 1140 Rocket 3.4 13:01:42 10° SSW 13:07:00 84° ESE 13:08:06 57° NNE
Cosmos 1340 Rocket 4.3 13:08:48 26° WSW 13:08:48 26° WSW 13:11:57 10° SSW
Cosmos 2360 4.3 13:08:30 53° NNE 13:09:40 66° ENE 13:15:24 10° SSE
IRIDIUM 106 4.3 13:10:19 61° NNW 13:11:11 76° W 13:16:30 10° S
USA 59 Rocket 1.9 13:01:27 10° SW 13:11:28 75° SE 13:18:36 12° NE
Cosmos 2151 4.3 13:08:13 10° SSW 13:11:19 27° WSW 13:11:19 27° WSW
COSMOS 2441 4.3 13:17:11 58° NNE 13:18:08 83° ESE 13:23:06 10° SSW
Cosmos 1076 Rocket 4.0 13:14:28 10° SSW 13:18:24 47° W 13:18:24 47° W
SeaSat 1 2.4 13:20:19 59° NW 13:20:40 61° WNW 13:25:37 10° SSW
CZ-2D R/B 2.0 13:22:55 51° N 13:24:21 87° WNW 13:29:46 10° SSW
USA 276 4.2 13:21:56 10° SW 13:24:40 27° S 13:27:18 10° ESE
Spot 2 4.0 13:27:19 10° SSE 13:31:26 64° ENE 13:31:48 61° NE
ATLAS 2AS CENTAUR R/B 4.2 13:26:50 10° W 13:32:59 32° SW 13:39:22 10° SSE
Cosmos 1782 4.2 13:35:32 26° WSW 13:35:32 26° WSW 13:38:31 10° SSW
Cosmos 2297 Rocket 2.1 13:30:06 10° SSW 13:35:50 78° WNW 13:37:44 43° N
Cosmos 1697 Rocket 2.8 13:36:22 46° N 13:37:58 67° ENE 13:43:37 10° SSE
H-2A R/B 3.8 13:40:22 44° NE 13:41:21 58° ESE 13:45:20 10° S
SL-4 R/B 3.1 13:38:44 10° SW 13:42:36 42° SSE 13:46:15 10° E
Cosmos 1441 Rocket 3.3 13:41:02 10° S 13:44:40 62° ESE 13:44:58 59° ENE
Cosmos 2227 Rocket 2.6 13:39:00 10° SSW 13:44:41 63° ESE 13:49:19 15° NE
Cosmos 1461 3.7 13:48:21 36° NE 13:48:41 37° ENE 13:52:31 10° SE
Cosmos 1980 Rocket 3.1 13:49:23 28° NNE 13:51:39 39° ENE 13:56:53 10° SE
CZ-2C R/B 3.7 13:48:59 10° SSE 13:54:13 39° E 13:57:12 22° NNE
FENGYUN 3A 4.0 13:54:34 40° NW 13:55:40 46° W 14:00:55 10° SSW
Cosmos 1190 Rocket 4.2 13:51:27 10° SSW 13:56:50 71° ESE 14:00:24 21° NNE
Meteor 1-5 Rocket 4.3 13:52:38 10° SSW 13:57:51 54° W 13:59:14 42° NW
SME Rocket 3.1 13:59:08 35° NNE 14:00:44 72° ESE 14:04:32 10° S
Cosmos 1812 Rocket 3.6 14:01:02 52° NNW 14:02:01 74° W 14:06:34 10° S
Cosmos 2219 4.4 13:56:38 10° SSW 14:02:10 43° ESE 14:07:39 10° NE
Cosmos 2221 2.7 14:01:27 44° NNE 14:02:37 66° E 14:06:53 10° SSE
Tiangong -0.6 14:05:28 29° ENE 14:05:28 29° ENE 14:07:17 10° E
ATLAS 3B R/B 3.2 14:04:22 10° SW 14:09:49 32° WNW 14:10:35 31° NW
Meteor 2-15 4.4 14:05:23 10° S 14:11:37 88° W 14:15:23 26° N
IDEFIX/ARIANE 42P 4.2 14:11:58 18° W 14:12:16 18° W 14:15:47 10° SW
Cosmos 1371 Rocket 4.0 14:10:48 38° NNW 14:12:50 82° ENE 14:18:07 10° SSE
Cosmos 2251 Rocket 3.7 14:11:13 10° SSW 14:16:26 55° WNW 14:18:27 35° NNW
Cosmos 1743 3.9 14:14:52 10° SSW 14:17:26 26° WSW 14:17:26 26° WSW
NOAA 11 4.1 14:15:56 27° N 14:19:02 78° WNW 14:24:37 10° SSW
USA 229 DEB 3.7 14:13:02 10° SW 14:19:10 46° WNW 14:21:43 29° N
USA 229 3.7 14:13:06 10° SW 14:19:15 46° WNW 14:21:53 29° N
Cosmos 972 Rocket 4.3 14:15:10 10° SSW 14:20:55 90° SE 14:26:33 14° NNE
BlueWalker 3 2.7 14:22:18 34° NNE 14:22:45 35° NE 14:26:14 10° ESE
ADEOS II 2.7 14:21:45 33° NW 14:23:07 38° W 14:28:04 10° SSW
Resurs 1-4 Rocket 3.3 14:22:32 24° WNW 14:23:19 25° W 14:27:42 10° SW
USA 305 2.3 14:23:34 60° NNW 14:24:03 71° NE 14:27:57 10° SE
SJ 16-02 3.6 14:21:18 10° S 14:24:54 24° ESE 14:28:29 10° ENE
Cosmos 1605 Rocket 4.1 14:21:22 10° SSW 14:27:32 61° W 14:31:03 26° NNW
Cosmos 1420 Rocket 4.4 14:26:59 31° NW 14:29:14 53° WSW 14:34:25 10° SSE
H-2A R/B 4.4 14:28:25 10° SSW 14:30:45 15° WSW 14:31:52 14° W
H-2A R/B 3.0 14:29:48 10° NE 14:34:55 49° ESE 14:39:58 10° S
Cosmos 2056 Rocket 3.7 14:33:57 30° NW 14:36:29 63° WSW 14:41:52 10° SSE
Cosmos 1238 Rocket 4.2 14:36:30 18° WSW 14:36:49 19° WSW 14:39:26 10° SSW
Cosmos 676 Rocket 4.0 14:33:09 10° SSW 14:38:34 84° WNW 14:43:47 11° NNE
SL-16 R/B 4.2 14:34:47 10° NNE 14:39:01 22° E 14:43:16 10° SE
Cosmos 1727 Rocket 4.0 14:35:49 22° N 14:40:09 89° E 14:46:36 10° S
ATLAS 5 CENTAUR R/B 3.2 14:39:54 10° SSW 14:41:49 27° SE 14:44:34 10° ENE
ALOS 3.1 14:40:58 27° WNW 14:42:01 30° W 14:46:09 10° SSW
BREEZE-M DEB 4.5 14:29:46 10° WNW 14:43:15 90° ESE 14:48:01 10° ESE
Cosmos 2369 3.8 14:46:34 23° NNW 14:50:16 79° ENE 14:56:03 10° SSE
Meteor 1-11 Rocket 4.1 14:44:37 10° S 14:50:41 73° ESE 14:56:37 10° NNE
Cosmos 1346 Rocket 3.7 14:47:23 10° S 14:51:04 45° ESE 14:54:43 10° NNE
Envisat 3.5 14:49:46 25° NNW 14:52:10 40° W 14:57:00 10° SSW
CZ-4 R/B 4.5 14:47:46 10° NNE 14:52:40 62° ESE 14:57:41 10° S
Cosmos 1733 3.6 14:50:24 10° SSW 14:53:29 34° W 14:54:03 32° WNW
Meteor 1-14 Rocket 4.4 14:48:20 10° SSW 14:54:11 59° W 14:58:34 17° N
Meteor 1-27 Rocket 4.3 14:51:00 12° N 14:56:25 61° E 15:02:18 10° SSE
OAO 3 Rocket 4.2 14:55:27 25° NNW 14:56:43 28° N 15:00:53 10° NE
Cosmos 1459 Rocket 4.1 14:51:04 10° S 14:57:27 79° E 15:03:39 10° NNE
USA 276 1.8 14:55:47 10° WSW 14:58:48 86° SE 15:01:38 10° ENE
USA 59 Rocket 2.3 14:52:39 10° SW 15:00:20 30° WNW 15:04:36 18° NNW
Cosmos 2263 Rocket 2.2 14:55:03 10° SSW 15:00:47 74° WNW 15:06:28 10° NNE
CZ-2D R/B 4.1 15:04:11 11° W 15:05:04 11° W 15:06:46 10° WSW
Meteor 2-10 4.3 15:00:42 10° SSW 15:05:41 50° W 15:09:39 16° NNW
USA 306 1.7 15:08:49 37° NNE 15:08:52 37° NE 15:10:29 10° ESE
YAOGAN 6 2.3 15:06:46 10° NNE 15:09:41 69° ESE 15:12:42 10° S
CZ-2C R/B 2.2 15:06:50 11° N 15:11:18 66° WNW 15:16:02 10° SSW
Cosmos 1356 Rocket 3.9 15:07:43 12° N 15:11:19 54° E 15:15:12 10° SSE
Cosmos 1766 Rocket 4.2 15:09:38 10° SSW 15:13:42 38° W 15:16:24 18° NNW
USA 215 3.3 15:08:22 10° SE 15:15:02 79° NE 15:20:35 16° NW
Cosmos 1400 Rocket 3.5 15:13:22 21° NW 15:15:22 37° WSW 15:19:02 10° S
USA 307 3.2 15:15:20 20° N 15:16:27 28° NE 15:19:10 10° ESE
Cosmos 2297 Rocket 4.1 15:17:43 10° W 15:18:50 11° W 15:19:28 10° WNW
Cosmos 1725 Rocket 4.2 15:12:33 10° S 15:18:57 76° E 15:25:13 10° NNE
Cosmos 2123 Rocket 4.0 15:13:19 10° N 15:19:31 88° E 15:25:49 10° S
Cosmos 1110 Rocket 4.0 15:16:42 16° NNW 15:20:52 79° WSW 15:26:12 10° SSE
SL-4 R/B 2.0 15:17:11 10° WSW 15:20:55 43° NW 15:24:23 10° NNE
Cosmos 1697 Rocket 4.3 15:18:05 10° W 15:22:26 22° SW 15:26:50 10° S
Lacrosse 5 rocket 4.0 15:20:48 10° SSW 15:23:20 18° SSE 15:25:51 10° ESE
Cosmos 1461 4.4 15:23:17 12° W 15:26:22 26° SW 15:29:52 10° SSE
Cosmos 1536 3.8 15:24:34 10° SSW 15:27:53 28° W 15:30:08 16° NW
Cosmos 2100 Rocket 4.2 15:21:49 10° SSW 15:27:59 57° W 15:34:09 10° NNW
Cosmos 2227 Rocket 3.5 15:24:08 10° SW 15:28:09 20° W 15:31:01 14° NW
Cosmos 1844 Rocket 4.1 15:26:08 10° SSW 15:31:37 44° ESE 15:37:02 10° NE
Cosmos 1674 2.3 15:28:48 10° N 15:31:51 74° E 15:35:01 10° SSE
SL-16 R/B 3.9 15:26:40 10° SSE 15:32:26 38° E 15:38:08 10° NNE
CZ-2C R/B 3.7 15:29:23 10° S 15:34:18 32° WSW 15:38:39 12° WNW
Cosmos 1766 4.0 15:32:03 10° S 15:35:36 50° E 15:39:05 10° NNE
Cosmos 1980 Rocket 3.2 15:31:09 13° WNW 15:35:41 34° SW 15:40:48 10° S
Cosmos 1315 Rocket 3.2 15:34:40 10° N 15:38:28 59° E 15:42:17 10° SSE
Cosmos 1607 4.0 15:33:08 11° NNW 15:38:59 80° ENE 15:45:16 10° SE
Meteor 1-28 Rocket 4.4 15:36:07 10° SSE 15:39:25 37° E 15:42:39 10° NNE
Cosmos 1500 Rocket 3.6 15:35:49 10° S 15:40:21 90° SE 15:44:48 10° N
Tiangong -1.4 15:37:53 10° W 15:40:53 35° NNW 15:43:54 10° NE
SL-12 R/B(2) 4.2 15:33:41 10° SW 15:41:38 51° WNW 15:48:40 10° N
Cosmos 2278 3.8 15:38:44 10° NNW 15:44:26 82° ENE 15:50:10 10° SSE
Okean 3 Rocket 4.2 15:40:15 10° SSW 15:44:31 38° W 15:48:42 10° NNW
Cosmos 724 4.5 15:38:35 10° NNW 15:44:42 84° ENE 15:50:49 10° SE
Cosmos 2219 4.0 15:41:06 10° SW 15:46:07 31° WNW 15:51:05 10° NNW
Cosmos 1484 Rocket 3.6 15:43:38 10° NNE 15:47:05 48° ESE 15:50:34 10° S
USA 267 3.8 15:41:35 10° ENE 15:48:05 66° SSE 15:54:39 10° SW
Cosmos 1741 Rocket 4.2 15:44:53 10° SSW 15:50:05 54° WNW 15:55:15 10° N
Cosmos 1809 Rocket 4.5 15:47:53 10° NNW 15:54:00 78° W 16:00:12 10° S
USA 305 4.3 15:51:23 10° W 15:54:38 28° SSW 15:58:08 10° SE
Cosmos 2333 Rocket 3.1 15:50:57 10° N 15:56:29 48° ENE 16:02:03 10° SE
KORONAS-FOTON 3.9 15:56:15 10° N 15:59:48 72° E 16:03:23 10° SSE
BlueWalker 3 2.8 15:56:56 10° W 16:00:31 41° SSW 16:04:09 10° SE
Thor Agena Rocket 3.6 15:56:37 10° N 16:01:55 78° WNW 16:07:18 10° SSW
Helios 1A Rocket 2.7 15:58:24 10° S 16:02:09 66° WSW 16:05:50 10° NNW
SJ 16-02 2.0 15:59:15 10° SW 16:03:12 33° WNW 16:07:06 10° NNW
Cosmos 371 Rocket 3.5 15:59:18 10° SSW 16:04:11 82° ESE 16:09:01 10° NNE
Cosmos 2285 Rocket 4.5 15:57:52 10° SSW 16:04:14 70° ESE 16:10:33 10° NNE
Cosmos 1452 Rocket 4.3 16:01:54 10° NW 16:06:48 37° WSW 16:11:44 10° S
Cosmos 1844 4.1 16:01:51 10° SSW 16:07:29 72° ESE 16:13:04 10° NNE
Sich 1 3.5 16:04:38 10° SSW 16:08:39 41° W 16:12:40 10° NNW
Lacrosse 5 4.0 16:04:17 10° SW 16:08:52 31° SSE 16:13:24 10° E
Cosmos 1842 3.2 16:05:47 10° N 16:09:23 80° E 16:13:03 10° S
SL-08 RB Rocket 3.7 16:05:56 10° N 16:10:28 74° WNW 16:15:07 10° SSW
Meteor 2-21 4.5 16:06:00 10° NNW 16:12:04 75° W 16:18:13 10° S
